Location: Hilton Head Island
(32.2163°N, 80.7526°W)
Time: 08:44:45
(UTC-04:00)

Vanguard 2 Rocket - Pass Details

Date: 19 February 2026
Orbit: 553 x 3286 km, 32.9° (Epoch: 16 March)

Event Time Altitude Azimuth Distance (km) Brightness Sun altitude
Rises 09:11:30 0° 206° (SSW) 6,624 11.4 24.6°
Reaches altitude 10° 09:16:23 10° 197° (SSW) 5,876 11.3 25.4°
Maximum altitude 09:32:27 34° 141° (SE) 4,520 12.6 28.2°
Drops below altitude 10° 09:47:58 10° 85° (E) 5,750 11.7 30.8°
Sets 09:52:33 0° 77° (ENE) 6,479 11.7 31.5°
